THOR ABLESTAR DEB, 2701

Orbit data source: Space-Track

THOR ABLESTAR DEB, 2701 is space debris in LEO originally from a launch on Thu, 24 Jun 1965 UTC launched from the Air Force Western Test Range (AFWTR). Debris objects in space refer to the collection of defunct objects orbiting the Earth. Examples of debris include non-operational satellites, rocket bodies, and fragments generated from explosions, collisions, or faulty payload assembly.

Loading next visibility...
Identifier
2701, 1965-048E
Orbit
LEO
Country
Flag of USUS
Related business
Manufacturer
Unknown
Mission
Spacecraft
Bus & Motor
Unknown
Mass
Unknown
Launch date (UTC)
1965-06-24 (61 years ago)
Launch vehicle
Unknown
Launch site
Air Force Western Test Range (AFWTR)
Object type
Payload
Rocket body
Debris
Shape & HBR
Unknown shape, 0.1 m
Radar Cross Section
Medium (>0.1 m² and <1 m²)

Expand to show TLE details & history
Last TLE update: 15 hours ago

TLE from 15 hours ago
0 THOR ABLESTAR DEB
1  2701U 65048E   26163.77854963  .00000309  00000-0  37198-3 0  9993
2  2701  89.8763 287.4737 0060961 257.6086 224.5938 13.63972237 20690
Epoch: 2026-06-12T18:41Z
TLE epoch observation values (Epoch: 2026-06-12T18:41:06.688Z)
Latitude
58.37693°
Longitude
-74.10713°
Altitude
1,063.493 km
Speed
7.31 km/s
True Right ascension
07h 09m 05s
True Declination
58° 13' 46"
Sunlit
Object was in daylight at epoch
Visualization orbit readout
Latitude
Unknown
Longitude
Unknown
Altitude
Unknown
Speed
Unknown
Apparent Right ascension
Unknown
Apparent Declination
Unknown
Sunlit
N/A
Visualization observer readout
Local Sidereal Time
20:10:43
Azimuth
Unknown
Elevation
Unknown
Doppler factor
Unknown
Orbital elements
Apogee altitude
1,063.41 km
Perigee altitude
973.231 km
Semi-major axis
7,396.457 km
Eccentricity
0.0061
Inclination
89.8763°
RAAN
287.4737°
Arg. of periapsis
257.6086°
True anomaly
224.10601°
Mean anomaly
224.5938°
Eccentric anomaly
224.34964°
Mean motion
3.41199 °/min
Orbital period
105.51 mins
BSTAR
0.00037198
Loading maneuver chart data...
Computing Atmospheric mass density...

Documentation

Showing up to 5 results
|